Location: Fort Worth, Tx
(32.7431°N, 97.3695°W)
Time: 06:05:31
(UTC-05:00)

Altair - Pass Details

Date: 08 October 2023
Orbit: 1501 x 1682 km, 47.2° (Epoch: 06 December)

Event Time Altitude Azimuth Distance (km) Brightness Sun altitude
Rises 22:53:23 0° 174° (S) 4,634 - -35.8°
Reaches altitude 10° 22:58:19 10° 152° (SSE) 3,679 - -36.8°
Maximum altitude 23:02:46 14° 122° (ESE) 3,365 - -37.7°
Drops below altitude 10° 23:07:16 10° 93° (E) 3,746 - -38.6°
Sets 23:12:18 0° 71° (ENE) 4,773 - -39.6°
